CFS8284 KAFW-KLBB

Flight info

Callsign CFS8284
Flight time 1h 5m
Altitude 17000
Route WORTH1 LBB DCT
Aircraft AT73/M-SDFGIRY/S

Departure

Time 2026-04-21 23:49
Airport Perot Field/Fort Worth Alliance Airport (KAFW)

Arrival

Time 2026-04-22 00:54
Airport Lubbock Preston Smith International Airport (KLBB)
Time Latitude Longitude Altitude Speed Heading
2026-04-21 23:27 32.99471 -97.31659 715 ft 0 kts 259°
2026-04-21 23:31 32.99472 -97.31652 715 ft 2 kts 260°
2026-04-21 23:31 32.99475 -97.31628 715 ft 3 kts 266°
2026-04-21 23:31 32.99475 -97.31604 715 ft 3 kts 279°
2026-04-21 23:32 32.99470 -97.31583 714 ft 3 kts 311°
2026-04-21 23:32 32.99460 -97.31573 718 ft 1 kts 350°
2026-04-21 23:32 32.99455 -97.31572 717 ft 1 kts 350°
2026-04-21 23:39 32.99489 -97.31579 717 ft 10 kts 352°
2026-04-21 23:39 32.99574 -97.31596 717 ft 14 kts 351°
2026-04-21 23:40 32.99621 -97.31604 717 ft 0 kts 351°
2026-04-21 23:40 32.99622 -97.31608 719 ft 1 kts 313°
2026-04-21 23:40 32.99616 -97.31614 717 ft 1 kts 202°
2026-04-21 23:40 32.99596 -97.31604 718 ft 5 kts 159°
2026-04-21 23:41 32.99556 -97.31593 719 ft 8 kts 170°
2026-04-21 23:41 32.99495 -97.31581 716 ft 11 kts 171°
2026-04-21 23:41 32.99408 -97.31563 715 ft 15 kts 169°
2026-04-21 23:41 32.99306 -97.31549 715 ft 14 kts 192°
2026-04-21 23:42 32.99262 -97.31659 711 ft 19 kts 260°
2026-04-21 23:42 32.99309 -97.31768 713 ft 14 kts 350°
2026-04-21 23:42 32.99423 -97.31791 717 ft 19 kts 350°
2026-04-21 23:42 32.99567 -97.31820 719 ft 22 kts 351°
2026-04-21 23:43 32.99724 -97.31853 720 ft 23 kts 349°
2026-04-21 23:43 32.99887 -97.31886 722 ft 24 kts 351°
2026-04-21 23:43 33.00045 -97.31919 727 ft 22 kts 351°
2026-04-21 23:43 33.00195 -97.31949 728 ft 22 kts 350°
2026-04-21 23:44 33.00344 -97.31980 733 ft 21 kts 350°
2026-04-21 23:44 33.00484 -97.32008 736 ft 20 kts 351°
2026-04-21 23:44 33.00541 -97.32076 737 ft 13 kts 261°
2026-04-21 23:44 33.00522 -97.32198 737 ft 12 kts 262°
2026-04-21 23:45 33.00519 -97.32223 737 ft 0 kts 262°
2026-04-21 23:47 33.00517 -97.32242 737 ft 7 kts 262°
2026-04-21 23:48 33.00499 -97.32323 736 ft 12 kts 240°
2026-04-21 23:48 33.00448 -97.32331 737 ft 18 kts 170°
2026-04-21 23:48 33.00032 -97.32247 730 ft 101 kts 169°
2026-04-21 23:48 32.99180 -97.32077 1031 ft 131 kts 167°
2026-04-21 23:49 32.98372 -97.31741 1842 ft 129 kts 134°
2026-04-21 23:49 32.98133 -97.30683 2563 ft 140 kts 108°
2026-04-21 23:49 32.97972 -97.29492 3288 ft 152 kts 107°
2026-04-21 23:49 32.97779 -97.28214 4013 ft 160 kts 111°
2026-04-21 23:50 32.97482 -97.26923 4820 ft 164 kts 112°
2026-04-21 23:50 32.97108 -97.25622 5599 ft 166 kts 115°
2026-04-21 23:50 32.96655 -97.24348 6423 ft 168 kts 119°
2026-04-21 23:50 32.96117 -97.23105 7188 ft 170 kts 122°
2026-04-21 23:51 32.95539 -97.21888 7955 ft 172 kts 123°
2026-04-21 23:51 32.94935 -97.20646 8723 ft 174 kts 123°
2026-04-21 23:51 32.94323 -97.19393 9522 ft 176 kts 122°
2026-04-21 23:51 32.93709 -97.18123 10276 ft 179 kts 121°
2026-04-21 23:52 32.93087 -97.16827 10971 ft 181 kts 121°
2026-04-21 23:52 32.92459 -97.15514 11666 ft 183 kts 121°
2026-04-21 23:52 32.91825 -97.14189 12383 ft 185 kts 121°
2026-04-21 23:52 32.91182 -97.12855 13079 ft 188 kts 120°
2026-04-21 23:53 32.90524 -97.11489 13786 ft 191 kts 120°
2026-04-21 23:53 32.89858 -97.10103 14436 ft 194 kts 120°
2026-04-21 23:53 32.89188 -97.08707 15059 ft 196 kts 120°
2026-04-21 23:53 32.88505 -97.07292 15679 ft 198 kts 120°
2026-04-21 23:54 32.87649 -97.06031 16220 ft 197 kts 153°
2026-04-21 23:54 32.86376 -97.05759 16862 ft 182 kts 200°
2026-04-21 23:54 32.85339 -97.06584 17028 ft 191 kts 242°
2026-04-21 23:54 32.85080 -97.08194 17033 ft 215 kts 282°
2026-04-21 23:55 32.85822 -97.09829 17027 ft 239 kts 308°
2026-04-21 23:55 32.86896 -97.11446 17012 ft 258 kts 306°
2026-04-21 23:55 32.87932 -97.13254 17009 ft 270 kts 302°
2026-04-21 23:55 32.88867 -97.15234 17003 ft 279 kts 295°
2026-04-21 23:56 32.89568 -97.17419 17000 ft 285 kts 287°
2026-04-21 23:56 32.90036 -97.19724 16997 ft 288 kts 282°
2026-04-21 23:56 32.90431 -97.22075 16997 ft 291 kts 282°
2026-04-21 23:56 32.90825 -97.24444 16998 ft 293 kts 282°
2026-04-21 23:57 32.91252 -97.26823 16998 ft 294 kts 283°
2026-04-21 23:57 32.91705 -97.29200 16999 ft 295 kts 283°
2026-04-21 23:57 32.92157 -97.31586 16999 ft 296 kts 283°
2026-04-21 23:57 32.92611 -97.33972 17001 ft 296 kts 283°
2026-04-21 23:58 32.92910 -97.35549 17002 ft 296 kts 283°
2026-04-21 23:58 32.93368 -97.37946 17001 ft 296 kts 283°
2026-04-21 23:58 32.93823 -97.40342 17002 ft 297 kts 283°
2026-04-21 23:58 32.94275 -97.42733 17003 ft 297 kts 283°
2026-04-21 23:59 32.94880 -97.45919 17002 ft 298 kts 283°
2026-04-21 23:59 32.95185 -97.47547 17000 ft 298 kts 283°
2026-04-21 23:59 32.95641 -97.49949 16998 ft 298 kts 283°
2026-04-21 23:59 32.96092 -97.52342 17035 ft 295 kts 283°
2026-04-22 00:00 32.96542 -97.54730 17040 ft 296 kts 283°
2026-04-22 00:00 32.96994 -97.57128 17049 ft 297 kts 283°
2026-04-22 00:00 32.97438 -97.59499 17039 ft 296 kts 283°
2026-04-22 00:00 32.97891 -97.61883 17045 ft 295 kts 283°
2026-04-22 00:01 32.98334 -97.64273 17051 ft 296 kts 283°
2026-04-22 00:01 32.98784 -97.66674 17052 ft 298 kts 283°
2026-04-22 00:01 32.99235 -97.69089 17048 ft 298 kts 283°
2026-04-22 00:01 32.99687 -97.71501 17052 ft 299 kts 283°
2026-04-22 00:02 33.00140 -97.73922 17049 ft 300 kts 283°
2026-04-22 00:02 33.00590 -97.76349 17048 ft 300 kts 283°
2026-04-22 00:02 33.01044 -97.78772 17045 ft 300 kts 283°
2026-04-22 00:02 33.01494 -97.81195 17040 ft 300 kts 283°
2026-04-22 00:03 33.01946 -97.83625 17033 ft 300 kts 283°
2026-04-22 00:03 33.02396 -97.86051 17027 ft 300 kts 283°
2026-04-22 00:03 33.02843 -97.88472 17020 ft 299 kts 283°
2026-04-22 00:03 33.03294 -97.90894 17080 ft 297 kts 283°
2026-04-22 00:04 33.03737 -97.93296 17132 ft 296 kts 283°
2026-04-22 00:04 33.04183 -97.95696 17147 ft 297 kts 283°
2026-04-22 00:04 33.04627 -97.98098 17146 ft 297 kts 283°
2026-04-22 00:04 33.05069 -98.00509 17154 ft 298 kts 282°
2026-04-22 00:05 33.05514 -98.02913 17156 ft 298 kts 283°
2026-04-22 00:05 33.05949 -98.05291 17151 ft 297 kts 283°
2026-04-22 00:05 33.06393 -98.07702 17147 ft 297 kts 283°
2026-04-22 00:05 33.06835 -98.10107 17144 ft 297 kts 283°
2026-04-22 00:06 33.07276 -98.12520 17142 ft 298 kts 282°
2026-04-22 00:06 33.07721 -98.14934 17138 ft 298 kts 283°
2026-04-22 00:06 33.08161 -98.17348 17136 ft 298 kts 282°
2026-04-22 00:06 33.08602 -98.19761 17127 ft 298 kts 283°
2026-04-22 00:07 33.09044 -98.22183 17119 ft 298 kts 283°
2026-04-22 00:07 33.09484 -98.24597 17114 ft 298 kts 283°
2026-04-22 00:07 33.09924 -98.27008 17118 ft 297 kts 282°
2026-04-22 00:07 33.10360 -98.29417 17115 ft 297 kts 282°
2026-04-22 00:08 33.10800 -98.31826 17117 ft 297 kts 282°
2026-04-22 00:08 33.11235 -98.34232 17118 ft 297 kts 282°
2026-04-22 00:08 33.11673 -98.36644 17111 ft 298 kts 282°
2026-04-22 00:08 33.12111 -98.39065 17113 ft 299 kts 282°
2026-04-22 00:09 33.12548 -98.41492 17110 ft 299 kts 282°
2026-04-22 00:09 33.12988 -98.43916 17127 ft 300 kts 282°
2026-04-22 00:09 33.13421 -98.46323 17129 ft 300 kts 282°
2026-04-22 00:09 33.13860 -98.48754 17128 ft 300 kts 282°
2026-04-22 00:10 33.14298 -98.51191 17126 ft 300 kts 282°
2026-04-22 00:10 33.14735 -98.53631 17128 ft 300 kts 282°
2026-04-22 00:10 33.15174 -98.56064 17129 ft 300 kts 282°
2026-04-22 00:10 33.15611 -98.58507 17130 ft 300 kts 282°
2026-04-22 00:11 33.16049 -98.60941 17126 ft 301 kts 282°
2026-04-22 00:11 33.16486 -98.63383 17128 ft 301 kts 282°
2026-04-22 00:11 33.16920 -98.65826 17126 ft 300 kts 282°
2026-04-22 00:11 33.17358 -98.68264 17124 ft 301 kts 282°
2026-04-22 00:12 33.17791 -98.70701 17124 ft 301 kts 282°
2026-04-22 00:12 33.18227 -98.73144 17119 ft 301 kts 282°
2026-04-22 00:12 33.18661 -98.75586 17119 ft 301 kts 282°
2026-04-22 00:12 33.19093 -98.78029 17118 ft 301 kts 282°
2026-04-22 00:13 33.19528 -98.80474 17116 ft 301 kts 282°
2026-04-22 00:13 33.19961 -98.82921 17111 ft 301 kts 282°
2026-04-22 00:13 33.20395 -98.85371 17109 ft 301 kts 282°
2026-04-22 00:13 33.20828 -98.87816 17107 ft 301 kts 282°
2026-04-22 00:14 33.21258 -98.90262 17101 ft 301 kts 282°
2026-04-22 00:14 33.21689 -98.92708 17099 ft 301 kts 282°
2026-04-22 00:14 33.22120 -98.95155 17095 ft 301 kts 282°
2026-04-22 00:14 33.22551 -98.97606 17093 ft 301 kts 282°
2026-04-22 00:15 33.22981 -99.00053 17090 ft 301 kts 282°
2026-04-22 00:15 33.23410 -99.02500 17091 ft 301 kts 282°
2026-04-22 00:15 33.23842 -99.04949 17091 ft 301 kts 282°
2026-04-22 00:15 33.24269 -99.07394 17093 ft 301 kts 282°
2026-04-22 00:16 33.24694 -99.09818 17087 ft 301 kts 282°
2026-04-22 00:16 33.25122 -99.12267 17086 ft 300 kts 282°
2026-04-22 00:16 33.25545 -99.14707 17086 ft 301 kts 282°
2026-04-22 00:16 33.25973 -99.17155 17086 ft 300 kts 282°
2026-04-22 00:17 33.26398 -99.19601 17087 ft 301 kts 282°
2026-04-22 00:17 33.26823 -99.22048 17087 ft 301 kts 282°
2026-04-22 00:17 33.27249 -99.24503 17079 ft 301 kts 282°
2026-04-22 00:17 33.27674 -99.26958 17077 ft 302 kts 282°
2026-04-22 00:18 33.28101 -99.29415 17081 ft 302 kts 282°
2026-04-22 00:18 33.28524 -99.31870 17079 ft 301 kts 282°
2026-04-22 00:18 33.28946 -99.34319 17080 ft 301 kts 282°
2026-04-22 00:18 33.29368 -99.36761 17084 ft 301 kts 282°
2026-04-22 00:19 33.29790 -99.39206 17075 ft 301 kts 282°
2026-04-22 00:19 33.30212 -99.41660 17074 ft 301 kts 282°
2026-04-22 00:19 33.30633 -99.44108 17074 ft 301 kts 282°
2026-04-22 00:19 33.31049 -99.46529 17071 ft 301 kts 282°
2026-04-22 00:20 33.31467 -99.48966 17070 ft 299 kts 282°
2026-04-22 00:20 33.31886 -99.51408 17075 ft 299 kts 282°
2026-04-22 00:20 33.32300 -99.53840 17066 ft 298 kts 282°
2026-04-22 00:20 33.32716 -99.56271 17063 ft 298 kts 282°
2026-04-22 00:21 33.33130 -99.58702 17063 ft 299 kts 282°
2026-04-22 00:21 33.33546 -99.61137 17065 ft 299 kts 282°
2026-04-22 00:21 33.33961 -99.63568 17064 ft 300 kts 282°
2026-04-22 00:21 33.34376 -99.66017 17063 ft 300 kts 282°
2026-04-22 00:22 33.34792 -99.68463 17066 ft 300 kts 282°
2026-04-22 00:22 33.35209 -99.70909 17057 ft 300 kts 282°
2026-04-22 00:22 33.35621 -99.73347 17058 ft 299 kts 282°
2026-04-22 00:22 33.36032 -99.75788 17058 ft 300 kts 282°
2026-04-22 00:23 33.36447 -99.78238 17062 ft 301 kts 282°
2026-04-22 00:23 33.36859 -99.80687 17063 ft 300 kts 282°
2026-04-22 00:23 33.37273 -99.83141 17062 ft 300 kts 282°
2026-04-22 00:23 33.37681 -99.85555 17051 ft 300 kts 282°
2026-04-22 00:24 33.38092 -99.88012 17055 ft 301 kts 282°
2026-04-22 00:24 33.38503 -99.90468 17052 ft 302 kts 282°
2026-04-22 00:24 33.38918 -99.92921 17052 ft 300 kts 282°
2026-04-22 00:24 33.39327 -99.95368 17053 ft 299 kts 282°
2026-04-22 00:25 33.39733 -99.97807 17055 ft 300 kts 282°
2026-04-22 00:25 33.40142 -100.00257 17050 ft 301 kts 282°
2026-04-22 00:25 33.40552 -100.02715 17048 ft 300 kts 282°
2026-04-22 00:25 33.40967 -100.05164 17045 ft 300 kts 282°
2026-04-22 00:26 33.41384 -100.07612 17045 ft 299 kts 282°
2026-04-22 00:26 33.41801 -100.10047 17046 ft 298 kts 282°
2026-04-22 00:26 33.42210 -100.12478 17049 ft 297 kts 282°
2026-04-22 00:26 33.42610 -100.14900 17036 ft 297 kts 282°
2026-04-22 00:27 33.43003 -100.17297 17040 ft 296 kts 282°
2026-04-22 00:27 33.43404 -100.19721 17038 ft 298 kts 282°
2026-04-22 00:27 33.43805 -100.22167 17034 ft 299 kts 282°
2026-04-22 00:27 33.44210 -100.24615 17037 ft 300 kts 282°
2026-04-22 00:28 33.44614 -100.27072 17034 ft 300 kts 282°
2026-04-22 00:28 33.45015 -100.29517 17025 ft 300 kts 282°
2026-04-22 00:28 33.45420 -100.31968 17025 ft 299 kts 282°
2026-04-22 00:28 33.45825 -100.34417 17026 ft 301 kts 282°
2026-04-22 00:29 33.46229 -100.36881 17024 ft 302 kts 282°
2026-04-22 00:29 33.46632 -100.39352 17029 ft 302 kts 282°
2026-04-22 00:29 33.47036 -100.41836 17030 ft 303 kts 282°
2026-04-22 00:29 33.47438 -100.44308 17019 ft 302 kts 282°
2026-04-22 00:30 33.47835 -100.46743 17014 ft 302 kts 282°
2026-04-22 00:30 33.48238 -100.49215 17018 ft 302 kts 282°
2026-04-22 00:30 33.48637 -100.51677 17017 ft 301 kts 282°
2026-04-22 00:30 33.49037 -100.54134 17016 ft 301 kts 282°
2026-04-22 00:31 33.49438 -100.56594 17020 ft 301 kts 281°
2026-04-22 00:31 33.49838 -100.59069 17006 ft 302 kts 282°
2026-04-22 00:31 33.50225 -100.61535 17010 ft 301 kts 282°
2026-04-22 00:31 33.50610 -100.64001 17006 ft 302 kts 282°
2026-04-22 00:32 33.51004 -100.66471 17008 ft 302 kts 283°
2026-04-22 00:32 33.51401 -100.68939 17007 ft 301 kts 282°
2026-04-22 00:32 33.51795 -100.71405 17008 ft 301 kts 283°
2026-04-22 00:32 33.52193 -100.73866 17002 ft 301 kts 283°
2026-04-22 00:33 33.52604 -100.76332 16999 ft 303 kts 283°
2026-04-22 00:33 33.53015 -100.78815 16999 ft 304 kts 282°
2026-04-22 00:33 33.53413 -100.81297 17005 ft 303 kts 282°
2026-04-22 00:33 33.53807 -100.83773 17003 ft 302 kts 283°
2026-04-22 00:34 33.54214 -100.86251 17003 ft 303 kts 282°
2026-04-22 00:34 33.54622 -100.88727 17000 ft 303 kts 283°
2026-04-22 00:34 33.55022 -100.91207 16999 ft 304 kts 282°
2026-04-22 00:34 33.55419 -100.93704 16999 ft 305 kts 282°
2026-04-22 00:35 33.55817 -100.96202 16997 ft 306 kts 282°
2026-04-22 00:35 33.56212 -100.98702 16994 ft 306 kts 282°
2026-04-22 00:35 33.56596 -101.01173 16999 ft 304 kts 282°
2026-04-22 00:35 33.56976 -101.03665 16991 ft 303 kts 282°
2026-04-22 00:36 33.57360 -101.06150 16996 ft 303 kts 282°
2026-04-22 00:36 33.57741 -101.08636 16995 ft 304 kts 282°
2026-04-22 00:36 33.58128 -101.11128 16993 ft 304 kts 282°
2026-04-22 00:36 33.58520 -101.13617 16993 ft 303 kts 282°
2026-04-22 00:37 33.58898 -101.16099 16995 ft 302 kts 282°
2026-04-22 00:37 33.59284 -101.18568 16992 ft 301 kts 282°
2026-04-22 00:37 33.59668 -101.21034 16993 ft 301 kts 282°
2026-04-22 00:37 33.60058 -101.23506 16998 ft 302 kts 282°
2026-04-22 00:38 33.60442 -101.25981 16996 ft 301 kts 282°
2026-04-22 00:38 33.60838 -101.28455 16994 ft 303 kts 282°
2026-04-22 00:38 33.61240 -101.30942 16986 ft 303 kts 282°
2026-04-22 00:38 33.61631 -101.33426 16989 ft 303 kts 282°
2026-04-22 00:39 33.62017 -101.35905 16994 ft 302 kts 283°
2026-04-22 00:39 33.62411 -101.38402 16730 ft 311 kts 282°
2026-04-22 00:39 33.62818 -101.40909 16351 ft 296 kts 282°
2026-04-22 00:39 33.63187 -101.43279 15988 ft 285 kts 282°
2026-04-22 00:40 33.63536 -101.45595 15619 ft 280 kts 282°
2026-04-22 00:40 33.63874 -101.47871 15258 ft 277 kts 281°
2026-04-22 00:40 33.64215 -101.50131 14904 ft 276 kts 281°
2026-04-22 00:40 33.64560 -101.52392 14542 ft 275 kts 281°
2026-04-22 00:41 33.64901 -101.54644 14206 ft 272 kts 282°
2026-04-22 00:41 33.65243 -101.56876 13868 ft 271 kts 282°
2026-04-22 00:41 33.65586 -101.59085 13490 ft 268 kts 282°
2026-04-22 00:41 33.65933 -101.61287 13106 ft 270 kts 281°
2026-04-22 00:42 33.66271 -101.63494 12731 ft 269 kts 281°
2026-04-22 00:42 33.66606 -101.65699 12365 ft 267 kts 281°
2026-04-22 00:42 33.66932 -101.67884 11987 ft 264 kts 282°
2026-04-22 00:42 33.67262 -101.70045 11629 ft 263 kts 281°
2026-04-22 00:43 33.67581 -101.72157 11272 ft 260 kts 281°
2026-04-22 00:43 33.67889 -101.74149 10937 ft 258 kts 281°
2026-04-22 00:43 33.68212 -101.76257 10582 ft 256 kts 281°
2026-04-22 00:43 33.68528 -101.78351 10238 ft 254 kts 281°
2026-04-22 00:44 33.68842 -101.80433 9880 ft 253 kts 281°
2026-04-22 00:44 33.69163 -101.82505 9507 ft 251 kts 281°
2026-04-22 00:44 33.69495 -101.84563 9146 ft 250 kts 280°
2026-04-22 00:44 33.70015 -101.86523 8755 ft 249 kts 300°
2026-04-22 00:45 33.71290 -101.87926 8394 ft 253 kts 322°
2026-04-22 00:45 33.72756 -101.89114 8029 ft 254 kts 323°
2026-04-22 00:45 33.74162 -101.90403 7648 ft 254 kts 315°
2026-04-22 00:45 33.75427 -101.91867 7218 ft 252 kts 311°
2026-04-22 00:46 33.76600 -101.93439 6871 ft 252 kts 308°
2026-04-22 00:46 33.77737 -101.95034 6524 ft 250 kts 307°
2026-04-22 00:46 33.78871 -101.96601 6173 ft 247 kts 308°
2026-04-22 00:46 33.80007 -101.98162 5787 ft 248 kts 308°
2026-04-22 00:47 33.81149 -101.99683 5433 ft 249 kts 308°
2026-04-22 00:47 33.82323 -102.01165 5262 ft 241 kts 318°
2026-04-22 00:47 33.83885 -102.01879 5105 ft 245 kts 355°
2026-04-22 00:47 33.85514 -102.01436 4978 ft 241 kts 32°
2026-04-22 00:48 33.86650 -102.00049 4858 ft 230 kts 67°
2026-04-22 00:48 33.86896 -101.98232 4762 ft 217 kts 105°
2026-04-22 00:48 33.86339 -101.96621 4651 ft 206 kts 121°
2026-04-22 00:48 33.85714 -101.95074 4548 ft 205 kts 118°
2026-04-22 00:49 33.85324 -101.94017 4483 ft 205 kts 117°
2026-04-22 00:49 33.84799 -101.92435 4394 ft 207 kts 114°
2026-04-22 00:49 33.84401 -101.90748 4293 ft 208 kts 108°
2026-04-22 00:49 33.84096 -101.89065 4227 ft 210 kts 105°
2026-04-22 00:50 33.83879 -101.87315 4144 ft 212 kts 99°
2026-04-22 00:50 33.83699 -101.85573 4119 ft 205 kts 109°
2026-04-22 00:50 33.83109 -101.84082 4185 ft 194 kts 132°
2026-04-22 00:50 33.82127 -101.83050 4260 ft 185 kts 153°
2026-04-22 00:51 33.80905 -101.82679 4344 ft 181 kts 181°
2026-04-22 00:51 33.79655 -101.82785 4405 ft 179 kts 182°
2026-04-22 00:51 33.78412 -101.82881 4511 ft 179 kts 182°
2026-04-22 00:51 33.77182 -101.82966 4572 ft 168 kts 181°
2026-04-22 00:52 33.76106 -101.82988 4678 ft 142 kts 180°
2026-04-22 00:52 33.75225 -101.82995 4833 ft 112 kts 178°
2026-04-22 00:52 33.74504 -101.82980 5020 ft 98 kts 177°
2026-04-22 00:52 33.73845 -101.82953 5002 ft 92 kts 178°
2026-04-22 00:53 33.73127 -101.82936 4777 ft 116 kts 178°
2026-04-22 00:53 33.72277 -101.82930 4571 ft 127 kts 178°
2026-04-22 00:53 33.71351 -101.82933 4321 ft 139 kts 179°
2026-04-22 00:53 33.70361 -101.82924 4026 ft 144 kts 177°
2026-04-22 00:54 33.69359 -101.82928 3678 ft 139 kts 176°
2026-04-22 00:54 33.68462 -101.82899 3389 ft 119 kts 180°
2026-04-22 00:54 33.67702 -101.82902 3265 ft 97 kts 179°
2026-04-22 00:54 33.67452 -101.82901 3258 ft 0 kts 180°
2026-04-22 00:55 33.67411 -101.82908 3258 ft 10 kts 210°
2026-04-22 00:55 33.67400 -101.82968 3259 ft 1 kts 270°
2026-04-22 00:55 33.67400 -101.82999 3260 ft 0 kts 269°
2026-04-22 00:57 33.67400 -101.83002 3260 ft 0 kts 269°
2026-04-22 00:58 33.67399 -101.83035 3261 ft 14 kts 269°
2026-04-22 00:58 33.67398 -101.83128 3263 ft 5 kts 270°
2026-04-22 00:58 33.67399 -101.83199 3264 ft 12 kts 271°
2026-04-22 00:58 33.67393 -101.83254 3265 ft 6 kts 249°
2026-04-22 00:59 33.67384 -101.83270 3262 ft 1 kts 219°
2026-04-22 00:59 33.67347 -101.83298 3265 ft 8 kts 256°
2026-04-22 00:59 33.67346 -101.83333 3265 ft 0 kts 269°
2026-04-22 00:59 33.67346 -101.83334 3265 ft 0 kts 269°